• In Hungary
  • List of Countries
  • For 7 days
  • Water Temperature
  • Satellite Maps
  • Weather Map
  • News
  • Weather Widgets
  • user-avatar
    Login

    Hourly Weather Tracy

    Today, 23 October, Tuesday

    Time Temperature Precipitation Wind Pressure Humidity
    00:00 +15°C° 0 mm 1 mps 759 mmHg 78%
    01:00 +15°C° 0 mm 1 mps 760 mmHg 80%
    02:00 +14°C° 0 mm 1 mps 760 mmHg 81%
    03:00 +14°C° 0 mm 1 mps 760 mmHg 81%
    04:00 +14°C° 0 mm 1 mps 760 mmHg 82%
    05:00 +14°C° 0 mm 1 mps 760 mmHg 81%
    06:00 +14°C° 0 mm 1 mps 760 mmHg 81%
    07:00 +14°C° 0 mm 1 mps 760 mmHg 80%
    08:00 +16°C° 0 mm 1 mps 760 mmHg 69%
    09:00 +20°C° 0 mm 1 mps 760 mmHg 58%
    10:00 +22°C° 0 mm 1 mps 760 mmHg 47%
    11:00 +23°C° 0 mm 2 mps 760 mmHg 42%
    12:00 +25°C° 0 mm 2 mps 760 mmHg 37%
    13:00 +26°C° 0 mm 2 mps 760 mmHg 32%
    14:00 +26°C° 0 mm 2 mps 759 mmHg 33%
    15:00 +26°C° 0 mm 2 mps 759 mmHg 33%
    16:00 +25°C° 0 mm 2 mps 759 mmHg 33%
    17:00 +23°C° 0 mm 2 mps 759 mmHg 40%
    18:00 +20°C° 0 mm 2 mps 760 mmHg 46%
    19:00 +18°C° 0 mm 2 mps 760 mmHg 53%
    20:00 +17°C° 0 mm 2 mps 760 mmHg 56%
    21:00 +17°C° 0 mm 2 mps 760 mmHg 60%
    22:00 +16°C° 0 mm 2 mps 760 mmHg 63%
    23:00 +15°C° 0 mm 1 mps 760 mmHg 64%

    Tomorrow, 24 October, Wednesday

    Time Temperature Precipitation Wind Pressure Humidity
    00:00 +15°C° 0 mm 1 mps 760 mmHg 65%
    01:00 +15°C° 0 mm 1 mps 760 mmHg 67%
    02:00 +14°C° 0 mm 1 mps 760 mmHg 67%
    03:00 +14°C° 0 mm 1 mps 760 mmHg 67%
    04:00 +14°C° 0 mm 1 mps 760 mmHg 67%
    05:00 +14°C° 0 mm 1 mps 760 mmHg 67%
    06:00 +14°C° 0 mm 1 mps 760 mmHg 67%
    07:00 +14°C° 0 mm 1 mps 761 mmHg 66%
    08:00 +18°C° 0 mm 1 mps 761 mmHg 57%
    09:00 +20°C° 0 mm 1 mps 761 mmHg 49%
    10:00 +23°C° 0 mm 1 mps 761 mmHg 40%
    11:00 +25°C° 0 mm 1 mps 761 mmHg 36%
    12:00 +26°C° 0 mm 2 mps 760 mmHg 32%
    13:00 +27°C° 0 mm 2 mps 760 mmHg 29%
    14:00 +27°C° 0 mm 2 mps 760 mmHg 31%
    15:00 +27°C° 0 mm 2 mps 760 mmHg 33%
    16:00 +26°C° 0 mm 2 mps 760 mmHg 35%
    17:00 +24°C° 0 mm 2 mps 760 mmHg 42%
    18:00 +23°C° 0 mm 2 mps 760 mmHg 49%
    19:00 +20°C° 0 mm 2 mps 761 mmHg 56%
    20:00 +19°C° 0 mm 2 mps 761 mmHg 60%
    21:00 +19°C° 0 mm 1 mps 761 mmHg 64%
    22:00 +18°C° 0 mm 1 mps 761 mmHg 68%
    23:00 +18°C° 0 mm 1 mps 761 mmHg 68%

    Day after tomorrow, 25 October, Thursday

    Time Temperature Precipitation Wind Pressure Humidity
    00:00 +18°C° 0 mm 1 mps 761 mmHg 68%
    01:00 +16°C° 0 mm 1 mps 761 mmHg 68%
    02:00 +16°C° 0 mm 1 mps 761 mmHg 68%
    03:00 +16°C° 0 mm 1 mps 761 mmHg 67%
    04:00 +16°C° 0 mm 1 mps 761 mmHg 67%
    05:00 +16°C° 0 mm 1 mps 761 mmHg 65%
    06:00 +16°C° 0 mm 1 mps 762 mmHg 64%
    07:00 +16°C° 0 mm 1 mps 762 mmHg 62%
    08:00 +19°C° 0 mm 1 mps 762 mmHg 52%
    09:00 +22°C° 0 mm 1 mps 762 mmHg 41%
    10:00 +24°C° 0 mm 2 mps 762 mmHg 31%
    11:00 +26°C° 0 mm 2 mps 762 mmHg 28%
    12:00 +28°C° 0 mm 2 mps 761 mmHg 25%
    13:00 +29°C° 0 mm 2 mps 761 mmHg 22%
    14:00 +29°C° 0 mm 2 mps 761 mmHg 23%
    15:00 +29°C° 0 mm 2 mps 760 mmHg 24%
    16:00 +29°C° 0 mm 2 mps 760 mmHg 25%
    17:00 +27°C° 0 mm 2 mps 760 mmHg 30%
    18:00 +24°C° 0 mm 1 mps 761 mmHg 34%
    19:00 +22°C° 0 mm 1 mps 761 mmHg 39%
    20:00 +22°C° 0 mm 1 mps 761 mmHg 40%
    21:00 +21°C° 0 mm 1 mps 761 mmHg 42%
    22:00 +20°C° 0 mm 1 mps 761 mmHg 44%
    23:00 +20°C° 0 mm 1 mps 761 mmHg 44%

    26 October, Friday

    Time Temperature Precipitation Wind Pressure Humidity
    00:00 +18°C° 0 mm 0 mps 761 mmHg 45%
    01:00 +17°C° 0 mm 0 mps 761 mmHg 45%
    02:00 +17°C° 0 mm 0 mps 761 mmHg 46%
    03:00 +17°C° 0 mm 0 mps 761 mmHg 46%
    04:00 +16°C° 0 mm 0 mps 761 mmHg 46%
    05:00 +16°C° 0 mm 0 mps 761 mmHg 46%
    06:00 +17°C° 0 mm 0 mps 762 mmHg 46%
    07:00 +17°C° 0 mm 0 mps 762 mmHg 46%
    08:00 +19°C° 0 mm 0 mps 762 mmHg 40%
    09:00 +24°C° 0 mm 1 mps 762 mmHg 35%
    10:00 +27°C° 0 mm 1 mps 762 mmHg 29%
    11:00 +28°C° 0 mm 1 mps 762 mmHg 27%
    12:00 +30°C° 0 mm 1 mps 761 mmHg 24%
    13:00 +31°C° 0 mm 1 mps 761 mmHg 22%
    14:00 +31°C° 0 mm 1 mps 761 mmHg 23%
    15:00 +31°C° 0 mm 1 mps 760 mmHg 24%
    16:00 +30°C° 0 mm 1 mps 760 mmHg 24%
    17:00 +28°C° 0 mm 1 mps 761 mmHg 28%
    18:00 +26°C° 0 mm 1 mps 761 mmHg 32%
    19:00 +24°C° 0 mm 1 mps 761 mmHg 36%
    20:00 +23°C° 0 mm 1 mps 761 mmHg 38%
    21:00 +23°C° 0 mm 1 mps 761 mmHg 39%
    22:00 +22°C° 0 mm 1 mps 761 mmHg 41%
    23:00 +21°C° 0 mm 1 mps 761 mmHg 42%

    27 October, Saturday

    Time Temperature Precipitation Wind Pressure Humidity
    00:00 +19°C° 0 mm 0 mps 761 mmHg 43%
    01:00 +19°C° 0 mm 0 mps 761 mmHg 44%
    02:00 +18°C° 0 mm 0 mps 761 mmHg 45%
    03:00 +18°C° 0 mm 0 mps 761 mmHg 46%
    04:00 +18°C° 0 mm 0 mps 761 mmHg 46%
    05:00 +18°C° 0 mm 0 mps 761 mmHg 46%
    06:00 +18°C° 0 mm 0 mps 761 mmHg 46%
    07:00 +17°C° 0 mm 0 mps 761 mmHg 47%
    08:00 +20°C° 0 mm 0 mps 761 mmHg 41%
    09:00 +23°C° 0 mm 0 mps 761 mmHg 35%
    10:00 +28°C° 0 mm 1 mps 761 mmHg 29%
    11:00 +29°C° 0 mm 1 mps 761 mmHg 26%
    12:00 +30°C° 0 mm 1 mps 760 mmHg 24%
    13:00 +32°C° 0 mm 1 mps 760 mmHg 22%
    14:00 +31°C° 0 mm 1 mps 759 mmHg 23%
    15:00 +31°C° 0 mm 1 mps 759 mmHg 24%
    16:00 +30°C° 0 mm 1 mps 759 mmHg 25%
    17:00 +28°C° 0 mm 1 mps 759 mmHg 28%
    18:00 +26°C° 0 mm 1 mps 760 mmHg 31%
    19:00 +22°C° 0 mm 0 mps 760 mmHg 35%
    20:00 +23°C° 0 mm 1 mps 760 mmHg 36%
    21:00 +23°C° 0 mm 1 mps 760 mmHg 38%
    22:00 +22°C° 0 mm 1 mps 760 mmHg 39%
    23:00 +22°C° 0 mm 1 mps 760 mmHg 41%

    28 October, Sunday

    Time Temperature Precipitation Wind Pressure Humidity
    00:00 +21°C° 0 mm 1 mps 760 mmHg 42%
    01:00 +21°C° 0 mm 1 mps 760 mmHg 44%
    02:00 +20°C° 0 mm 1 mps 760 mmHg 45%
    03:00 +20°C° 0 mm 1 mps 760 mmHg 47%
    04:00 +18°C° 0 mm 0 mps 761 mmHg 48%
    05:00 +19°C° 0 mm 1 mps 761 mmHg 48%
    06:00 +19°C° 0 mm 1 mps 761 mmHg 49%
    07:00 +19°C° 0 mm 1 mps 761 mmHg 50%
    08:00 +22°C° 0 mm 1 mps 761 mmHg 45%
    09:00 +24°C° 0 mm 1 mps 761 mmHg 40%
    10:00 +26°C° 0 mm 2 mps 762 mmHg 35%
    11:00 +27°C° 0 mm 2 mps 761 mmHg 35%
    12:00 +28°C° 0 mm 2 mps 761 mmHg 35%
    13:00 +29°C° 0 mm 3 mps 761 mmHg 35%
    14:00 +28°C° 0 mm 3 mps 761 mmHg 38%
    15:00 +28°C° 0 mm 3 mps 761 mmHg 41%
    16:00 +27°C° 0 mm 3 mps 761 mmHg 44%
    17:00 +25°C° 0 mm 3 mps 761 mmHg 52%
    18:00 +22°C° 0 mm 3 mps 762 mmHg 59%
    19:00 +21°C° 0 mm 3 mps 762 mmHg 66%
    20:00 +20°C° 0 mm 2 mps 762 mmHg 71%
    21:00 +19°C° 0 mm 2 mps 763 mmHg 75%
    22:00 +18°C° 0 mm 2 mps 763 mmHg 79%
    23:00 +18°C° 0 mm 2 mps 763 mmHg 82%

    29 October, Monday

    Time Temperature Precipitation Wind Pressure Humidity
    00:00 +18°C° 0 mm 2 mps 763 mmHg 84%
    01:00 +17°C° 0 mm 2 mps 763 mmHg 86%
    02:00 +17°C° 0 mm 2 mps 763 mmHg 87%
    03:00 +17°C° 0 mm 2 mps 763 mmHg 88%
    04:00 +17°C° 0 mm 2 mps 763 mmHg 89%
    05:00 +16°C° 0 mm 2 mps 763 mmHg 89%
    06:00 +16°C° 0 mm 2 mps 763 mmHg 88%
    07:00 +15°C° 0 mm 2 mps 763 mmHg 88%
    08:00 +17°C° 0 mm 2 mps 763 mmHg 75%
    09:00 +19°C° 0 mm 3 mps 763 mmHg 62%
    10:00 +21°C° 0 mm 3 mps 763 mmHg 49%
    11:00 +22°C° 0 mm 3 mps 762 mmHg 45%
    12:00 +24°C° 0 mm 3 mps 762 mmHg 41%
    13:00 +24°C° 0 mm 3 mps 761 mmHg 37%
    14:00 +24°C° 0 mm 3 mps 761 mmHg 38%
    15:00 +24°C° 0 mm 3 mps 761 mmHg 39%
    16:00 +24°C° 0 mm 3 mps 761 mmHg 40%
    17:00 +21°C° 0 mm 3 mps 761 mmHg 45%
    18:00 +19°C° 0 mm 2 mps 762 mmHg 51%
    19:00 +18°C° 0 mm 2 mps 762 mmHg 56%
    20:00 +17°C° 0 mm 2 mps 762 mmHg 58%
    21:00 +16°C° 0 mm 2 mps 762 mmHg 60%
    22:00 +16°C° 0 mm 2 mps 762 mmHg 62%
    23:00 +15°C° 0 mm 2 mps 762 mmHg 64%
    Show more